Change the Weather History Date:

Sunday, May 10, 2009

  Actual Average Record
Temperature  
Mean Temperature 68 °F -  
Max Temperature 82 °F 70 °F 80 °F (1973)
Min Temperature 53 °F 50 °F 27 °F (1971)
Cooling Degree Days 2    
Growing Degree Days 18 (Base 50)    
Moisture  
Dew Point 22 °F    
Average Humidity 19    
Maximum Humidity 35    
Minimum Humidity 8    
Precipitation  
Precipitation 0.00 in - - ()
Sea Level Pressure  
Sea Level Pressure 30.13 in    
Wind  
Wind Speed 8 mph (SSW)    
Max Wind Speed 20 mph    
Max Gust Speed 28 mph    
Visibility 10 miles    
Events      
Averages and records for this station are not official NWS values.
T = Trace of Precipitation, MM = Missing Value Source: NWS Daily Summary

Daily Weather History Graph

Daily Weather History Graph

Search for Another Location

Airport or City:

Trip Planner

Search our weather history database for the weather conditions in past years. The results will help you decide how hot, cold, wet, or windy it might be!

Date:

Astronomy

May. 10, 2009 Rise Set
Actual Time 5:21 AM MST 7:11 PM MST
Civil Twilight 4:54 AM MST 7:39 PM MST
Nautical Twilight 4:21 AM MST 8:12 PM MST
Astronomical Twilight 3:45 AM MST 8:47 PM MST
Moon 9:08 PM MST (5/10) 6:02 AM MST (5/10)
Length of Visible Light 14h 44m
Length of Day
13h 49m
Full, 97% of the Moon is Illuminated
May 10
Full
May 17
Last Quarter
May 24
New
May 30
First Quarter
Jun 7
Full

Hourly Weather History & Observations

Time (MST) Temp. Dew Point Humidity Pressure Visibility Wind Dir Wind Speed Gust Speed Precip Events Conditions
12:10 AM 59.0 °F 21.2 °F 23% 30.14 in 10.0 mi Calm Calm - N/A   Clear
12:30 AM 57.2 °F 21.2 °F 25% 30.14 in 10.0 mi Calm Calm - N/A   Clear
12:50 AM 57.2 °F 23.0 °F 27% 30.14 in 10.0 mi Calm Calm - N/A   Clear
1:10 AM 55.4 °F 23.0 °F 29% 30.14 in 10.0 mi SSW 3.5 mph - N/A   Clear
1:30 AM 55.4 °F 23.0 °F 29% 30.14 in 10.0 mi Calm Calm - N/A   Clear
1:50 AM 53.6 °F 23.0 °F 30% 30.13 in 10.0 mi Calm Calm - N/A   Clear
2:10 AM 53.6 °F 23.0 °F 30% 30.13 in 10.0 mi Calm Calm - N/A   Clear
2:30 AM 53.6 °F 23.0 °F 30% 30.13 in 10.0 mi SSE 8.1 mph - N/A   Clear
2:50 AM 53.6 °F 23.0 °F 30% 30.12 in 10.0 mi South 10.4 mph - N/A   Clear
3:10 AM 55.4 °F 24.8 °F 31% 30.11 in 10.0 mi South 10.4 mph - N/A   Clear
3:30 AM 55.4 °F 24.8 °F 31% 30.11 in 10.0 mi SSE 10.4 mph - N/A   Clear
3:50 AM 57.2 °F 23.0 °F 27% 30.11 in 10.0 mi South 9.2 mph - N/A   Clear
4:10 AM 57.2 °F 23.0 °F 27% 30.10 in 10.0 mi South 11.5 mph - N/A   Clear
4:30 AM 57.2 °F 24.8 °F 29% 30.10 in 10.0 mi South 11.5 mph - N/A   Clear
4:50 AM 57.2 °F 23.0 °F 27% 30.10 in 10.0 mi South 9.2 mph - N/A   Clear
5:10 AM 57.2 °F 24.8 °F 29% 30.12 in 10.0 mi South 9.2 mph - N/A   Clear
5:30 AM 55.4 °F 24.8 °F 31% 30.12 in 10.0 mi Calm Calm - N/A   Clear
5:50 AM 53.6 °F 26.6 °F 35% 30.12 in 10.0 mi SSW 8.1 mph - N/A   Clear
6:10 AM 57.2 °F 24.8 °F 29% 30.12 in 10.0 mi South 10.4 mph - N/A   Clear
6:30 AM 60.8 °F 26.6 °F 27% 30.13 in 10.0 mi South 9.2 mph - N/A   Clear
6:50 AM 62.6 °F 28.4 °F 27% 30.15 in 10.0 mi SSW 6.9 mph - N/A   Clear
7:10 AM 64.4 °F 28.4 °F 26% 30.15 in 10.0 mi SSW 9.2 mph - N/A   Clear
7:30 AM 66.2 °F 28.4 °F 24% 30.16 in 10.0 mi SSW 6.9 mph - N/A   Clear
7:50 AM 66.2 °F 26.6 °F 23% 30.16 in 10.0 mi South 11.5 mph - N/A   Clear
8:10 AM 68.0 °F 28.4 °F 23% 30.16 in 10.0 mi SSW 10.4 mph - N/A   Clear
8:30 AM 69.8 °F 26.6 °F 20% 30.17 in 10.0 mi SSW 15.0 mph - N/A   Clear
8:50 AM 69.8 °F 26.6 °F 20% 30.17 in 10.0 mi SW 12.7 mph 17.3 mph N/A   Clear
9:10 AM 71.6 °F 23.0 °F 16% 30.17 in 10.0 mi SSW 15.0 mph - N/A   Clear
9:30 AM 73.4 °F 21.2 °F 14% 30.17 in 10.0 mi South 17.3 mph 24.2 mph N/A   Clear
9:50 AM 73.4 °F 21.2 °F 14% 30.17 in 10.0 mi SSW 15.0 mph 18.4 mph N/A   Clear
10:10 AM 75.2 °F 19.4 °F 12% 30.17 in 10.0 mi SSW 17.3 mph 24.2 mph N/A   Clear
10:30 AM 75.2 °F 17.6 °F 11% 30.16 in 10.0 mi South 19.6 mph 25.3 mph N/A   Clear
10:50 AM 75.2 °F 17.6 °F 11% 30.16 in 10.0 mi SSW 17.3 mph 27.6 mph N/A   Clear
11:10 AM 77.0 °F 19.4 °F 12% 30.16 in 10.0 mi SW 18.4 mph 25.3 mph N/A   Clear
11:30 AM 78.8 °F 17.6 °F 10% 30.16 in 10.0 mi SSW 18.4 mph 26.5 mph N/A   Clear
11:50 AM 78.8 °F 17.6 °F 10% 30.15 in 10.0 mi SW 18.4 mph 24.2 mph N/A   Clear
12:10 PM 78.8 °F 19.4 °F 11% 30.15 in 10.0 mi WSW 13.8 mph 18.4 mph N/A   Clear
12:30 PM 78.8 °F 19.4 °F 11% 30.15 in 10.0 mi SSW 15.0 mph 24.2 mph N/A   Clear
12:50 PM 80.6 °F 19.4 °F 10% 30.14 in 10.0 mi SW 16.1 mph 24.2 mph N/A   Clear
1:10 PM 80.6 °F 19.4 °F 10% 30.13 in 10.0 mi SW 10.4 mph 21.9 mph N/A   Clear
1:30 PM 80.6 °F 14.0 °F 8% 30.13 in 10.0 mi WSW 12.7 mph 24.2 mph N/A   Clear
1:50 PM 80.6 °F 17.6 °F 10% 30.13 in 10.0 mi SW 18.4 mph - N/A   Clear
2:10 PM 80.6 °F 17.6 °F 10% 30.12 in 10.0 mi SW 16.1 mph 21.9 mph N/A   Clear
2:30 PM 82.4 °F 19.4 °F 10% 30.12 in 10.0 mi SW 17.3 mph 25.3 mph N/A   Clear
2:50 PM 82.4 °F 15.8 °F 8% 30.12 in 10.0 mi WSW 13.8 mph 26.5 mph N/A   Clear
3:10 PM 80.6 °F 15.8 °F 9% 30.11 in 10.0 mi SSW 12.7 mph 24.2 mph N/A   Clear
3:30 PM 80.6 °F 17.6 °F 10% 30.10 in 10.0 mi SSW 15.0 mph 20.7 mph N/A   Clear
3:50 PM 80.6 °F 17.6 °F 10% 30.10 in 10.0 mi WSW 10.4 mph 24.2 mph N/A   Clear
4:10 PM 80.6 °F 19.4 °F 10% 30.09 in 10.0 mi SW 13.8 mph 23.0 mph N/A   Clear
4:30 PM 80.6 °F 17.6 °F 10% 30.09 in 10.0 mi WSW 17.3 mph 24.2 mph N/A   Clear
4:50 PM 80.6 °F 19.4 °F 10% 30.09 in 10.0 mi SW 13.8 mph 20.7 mph N/A   Clear
5:10 PM 80.6 °F 19.4 °F 10% 30.09 in 10.0 mi SW 13.8 mph - N/A   Clear
5:30 PM 78.8 °F 19.4 °F 11% 30.10 in 10.0 mi WSW 16.1 mph - N/A   Clear
5:50 PM 78.8 °F 19.4 °F 11% 30.10 in 10.0 mi SW 17.3 mph 20.7 mph N/A   Clear
6:10 PM 77.0 °F 21.2 °F 12% 30.09 in 10.0 mi SW 16.1 mph - N/A   Clear
6:30 PM 75.2 °F 21.2 °F 13% 30.10 in 10.0 mi SW 13.8 mph - N/A   Clear
6:50 PM 73.4 °F 21.2 °F 14% 30.10 in 10.0 mi SW 11.5 mph - N/A   Clear
7:10 PM 71.6 °F 21.2 °F 15% 30.10 in 10.0 mi SSW 10.4 mph 16.1 mph N/A   Clear
7:30 PM 69.8 °F 21.2 °F 16% 30.11 in 10.0 mi SSW 9.2 mph - N/A   Clear
7:50 PM 66.2 °F 21.2 °F 18% 30.12 in 10.0 mi SSW 8.1 mph - N/A   Clear
8:10 PM 64.4 °F 19.4 °F 18% 30.12 in 10.0 mi South 9.2 mph - N/A   Clear
8:30 PM 62.6 °F 21.2 °F 20% 30.13 in 10.0 mi South 9.2 mph - N/A   Clear
8:50 PM 62.6 °F 19.4 °F 19% 30.14 in 10.0 mi South 10.4 mph - N/A   Clear
9:10 PM 62.6 °F 21.2 °F 20% 30.14 in 10.0 mi South 10.4 mph - N/A   Clear
9:30 PM 62.6 °F 21.2 °F 20% 30.15 in 10.0 mi South 12.7 mph - N/A   Clear
9:50 PM 62.6 °F 21.2 °F 20% 30.15 in 10.0 mi SSW 11.5 mph - N/A   Clear
10:10 PM 62.6 °F 21.2 °F 20% 30.15 in 10.0 mi SSW 10.4 mph - N/A   Clear
10:30 PM 57.2 °F 23.0 °F 27% 30.15 in 10.0 mi South 8.1 mph - N/A   Clear
10:50 PM 57.2 °F 23.0 °F 27% 30.15 in 10.0 mi South 9.2 mph - N/A   Clear
11:10 PM 59.0 °F 23.0 °F 25% 30.15 in 10.0 mi South 11.5 mph - N/A   Clear
11:30 PM 59.0 °F 23.0 °F 25% 30.15 in 10.0 mi South 9.2 mph - N/A   Clear
11:50 PM 59.0 °F 23.0 °F 25% 30.15 in 10.0 mi South 8.1 mph - N/A   Clear